FW0225 Weather Reports


Display with metric or nautical units.
time (UTC)temp
F
wind
direction
speed
MPH
gust
MPH
rain 1hr
in
rain 24hr
in
rain mn
in
humidity
%
barometer
mb
20260905071536 71 327 4.0 6.0 0.00 0.00 0.00 79 1016.3
20260905071019 71 317 4.0 6.0 0.00 0.00 0.00 79 1016.2
20260905070527 70 306 4.0 7.0 0.00 0.00 0.00 80 1016.2
20260905070024 69 296 3.0 5.0 0.00 0.00 0.00 81 1016.3
20260905065529 69 294 3.0 5.0 0.00 0.00 0.00 81 1016.3
20260905065031 69 292 0.0 5.0 0.00 0.00 0.00 83 1016.3
20260905064519 68 292 3.0 5.0 0.00 0.00 0.00 82 1016.3
20260905064023 68 288 4.0 5.0 0.00 0.00 0.00 83 1016.3
20260905063526 68 284 3.0 7.0 0.00 0.00 0.00 84 1016.3
20260905063020 67 284 4.0 7.0 0.00 0.00 0.00 84 1016.2
20260905062526 67 273 3.0 6.0 0.00 0.00 0.00 86 1016.2
20260905062029 66 272 3.0 6.0 0.00 0.00 0.00 86 1016.2
20260905061515 66 267 3.0 6.0 0.00 0.00 0.00 86 1016.1
20260905061017 65 263 3.0 6.0 0.00 0.00 0.00 87 1016.0
20260905060542 65 261 4.0 6.0 0.00 0.00 0.00 87 1016.0
20260905060021 65 257 4.0 4.0 0.00 0.00 0.00 87 1016.0
20260905055527 64 253 3.0 4.0 0.00 0.00 0.00 88 1016.0
20260905055030 64 252 3.0 4.0 0.00 0.00 0.00 88 1016.1
20260905054515 64 252 2.0 4.0 0.00 0.00 0.00 89 1016.0
20260905054017 64 252 3.0 4.0 0.00 0.00 0.00 89 1016.1
20260905053523 64 251 2.0 4.0 0.00 0.00 0.00 90 1016.2
20260905053018 64 250 2.0 5.0 0.00 0.00 0.00 90 1016.2
20260905052525 63 250 3.0 4.0 0.00 0.00 0.00 90 1016.2
20260905052027 63 250 1.0 3.0 0.00 0.00 0.00 90 1016.1
20260905051513 63 250 0.0 2.0 0.00 0.00 0.00 90 1016.1
20260905051017 63 250 0.0 3.0 0.00 0.00 0.00 90 1016.1
20260905050525 63 250 1.0 3.0 0.00 0.00 0.00 90 1016.1
20260905050025 63 250 1.0 3.0 0.00 0.00 0.00 90 1016.2
20260905045531 63 250 1.0 2.0 0.00 0.00 0.00 90 1016.2
20260905045015 63 250 0.0 4.0 0.00 0.00 0.00 90 1016.2
20260905044520 63 250 2.0 4.0 0.00 0.00 0.00 90 1016.1
20260905044023 63 250 2.0 3.0 0.00 0.00 0.00 90 1016.0
20260905043527 63 250 1.0 4.0 0.00 0.00 0.00 90 1015.9
20260905043021 63 249 2.0 4.0 0.00 0.00 0.00 90 1016.0
20260905042527 63 249 2.0 3.0 0.00 0.00 0.00 90 1015.9
20260905042028 63 249 1.0 3.0 0.00 0.00 0.00 90 1016.0
20260905041533 63 249 0.0 0.0 0.00 0.00 0.00 90 1016.0
20260905041035 63 249 0.0 2.0 0.00 0.00 0.00 90 1016.0
20260905040519 63 249 0.0 4.0 0.00 0.00 0.00 90 1016.0
20260905040013 63 249 1.0 4.0 0.00 0.00 0.00 90 1016.0
20260905035521 63 248 2.0 4.0 0.00 0.00 0.00 90 1016.0
20260905035024 64 248 1.0 3.0 0.00 0.00 0.00 90 1016.1
20260905034514 64 248 1.0 2.0 0.00 0.00 0.00 91 1016.1
20260905034016 64 248 0.0 2.0 0.00 0.00 0.00 91 1016.1
20260905033521 63 248 0.0 3.0 0.00 0.00 0.00 90 1016.0
20260905033034 64 248 1.0 3.0 0.00 0.00 0.00 90 1016.0
20260905032518 64 248 2.0 3.0 0.00 0.00 0.00 91 1015.9
20260905032022 64 248 1.0 2.0 0.00 0.00 0.00 91 1016.0
20260905031528 64 248 0.0 3.0 0.00 0.00 0.00 91 1016.0
20260905031030 64 248 1.0 3.0 0.00 0.00 0.00 91 1016.0
20260905030517 64 248 0.0 3.0 0.00 0.00 0.00 90 1016.0
20260905030013 64 248 0.0 3.0 0.00 0.00 0.00 90 1016.0
20260905025520 64 248 1.0 2.0 0.00 0.00 0.00 90 1016.0
20260905025020 64 248 1.0 2.0 0.00 0.00 0.00 90 1016.1
20260905024524 64 248 1.0 2.0 0.00 0.00 0.00 90 1016.0
20260905024027 64 248 1.0 2.0 0.00 0.00 0.00 91 1016.1
20260905023517 64 248 0.0 2.0 0.00 0.00 0.00 91 1016.1
20260905023030 64 248 0.0 2.0 0.00 0.00 0.00 91 1016.1
20260905022535 64 248 0.0 2.0 0.00 0.00 0.00 91 1016.1
20260905022017 64 248 0.0 2.0 0.00 0.00 0.00 91 1016.1
20260905021524 64 248 0.0 3.0 0.00 0.00 0.00 91 1016.1
20260905021028 64 248 1.0 3.0 0.00 0.00 0.00 91 1016.1
20260905020514 64 248 1.0 3.0 0.00 0.00 0.00 91 1016.1
20260905020048 64 248 1.0 3.0 0.00 0.00 0.00 90 1016.1
20260905015513 64 248 0.0 1.0 0.00 0.00 0.00 89 1016.1
20260905015016 64 248 0.0 0.0 0.00 0.00 0.00 89 1016.2
20260905014521 64 248 0.0 0.0 0.00 0.00 0.00 89 1016.2
20260905014045 64 248 0.0 0.0 0.00 0.00 0.00 89 1016.1
20260905013528 64 248 0.0 0.0 0.00 0.00 0.00 89 1016.2
20260905013043 64 248 0.0 0.0 0.00 0.00 0.00 89 1016.3
20260905012528 64 248 0.0 0.0 0.00 0.00 0.00 89 1016.3
20260905012016 64 248 0.0 0.0 0.00 0.00 0.00 89 1016.4
20260905011522 64 248 0.0 0.0 0.00 0.00 0.00 89 1016.4
20260905011044 64 248 0.0 0.0 0.00 0.00 0.00 89 1016.4
20260905010550 64 248 0.0 0.0 0.00 0.00 0.00 89 1016.4
20260905010044 64 248 0.0 0.0 0.00 0.00 0.00 88 1016.5
20260905005528 65 248 0.0 0.0 0.00 0.00 0.00 89 1016.5
20260905005030 65 248 0.0 0.0 0.00 0.00 0.00 88 1016.5
20260905004516 65 248 0.0 0.0 0.00 0.00 0.00 88 1016.5
20260905004016 65 248 0.0 0.0 0.00 0.00 0.00 88 1016.6
20260905003522 65 248 0.0 0.0 0.00 0.00 0.00 88 1016.6
20260905003016 65 248 0.0 0.0 0.00 0.00 0.00 88 1016.6
20260905002523 65 248 0.0 0.0 0.00 0.00 0.00 88 1016.7
20260905002026 65 248 0.0 1.0 0.00 0.00 0.00 88 1016.7
20260905001532 65 248 0.0 1.0 0.00 0.00 0.00 88 1016.8
20260905001035 65 248 0.0 1.0 0.00 0.00 0.00 88 1016.8
20260905000525 65 248 0.0 0.0 0.00 0.00 0.00 88 1016.8
20260905000021 65 248 0.0 0.0 0.00 0.00 0.00 88 1016.8
20260904235528 65 248 0.0 0.0 0.00 0.00 0.00 88 1016.9
20260904235030 65 248 0.0 0.0 0.00 0.00 0.00 87 1016.9
20260904234515 65 248 0.0 0.0 0.00 0.00 0.00 87 1017.0
20260904234016 65 248 0.0 0.0 0.00 0.00 0.00 87 1017.0
20260904233542 65 248 0.0 0.0 0.00 0.00 0.00 87 1017.0
20260904233016 66 248 0.0 0.0 0.00 0.00 0.00 87 1017.0
20260904232521 66 248 0.0 0.0 0.00 0.00 0.00 87 1017.1
20260904232043 66 248 0.0 0.0 0.00 0.00 0.00 87 1017.1
20260904231529 66 248 0.0 0.0 0.00 0.00 0.00 87 1017.2
20260904231032 66 248 0.0 0.0 0.00 0.00 0.00 87 1017.1
20260904230518 66 248 0.0 0.0 0.00 0.00 0.00 87 1017.1
20260904230033 66 248 0.0 0.0 0.00 0.00 0.00 86 1017.1
20260904225516 66 248 0.0 0.0 0.00 0.00 0.00 86 1017.1
20260904225039 66 248 0.0 0.0 0.00 0.00 0.00 86 1017.0
20260904224527 66 248 0.0 0.0 0.00 0.00 0.00 86 1017.1
20260904224030 66 248 0.0 0.0 0.00 0.00 0.00 86 1017.1
20260904223517 66 248 0.0 0.0 0.00 0.00 0.00 86 1017.2
20260904223014 67 248 0.0 0.0 0.00 0.00 0.00 86 1017.1
20260904222519 67 248 0.0 0.0 0.00 0.00 0.00 86 1017.1
20260904222041 67 248 0.0 0.0 0.00 0.00 0.00 85 1017.2
20260904221546 67 248 0.0 0.0 0.00 0.00 0.00 85 1017.1
20260904221026 67 248 0.0 1.0 0.00 0.00 0.00 85 1017.0
20260904220532 67 248 0.0 1.0 0.00 0.00 0.00 85 1017.0
20260904220027 67 248 0.0 1.0 0.00 0.00 0.00 85 1017.0
20260904215514 67 248 0.0 1.0 0.00 0.00 0.00 85 1017.0
20260904215039 67 248 0.0 0.0 0.00 0.00 0.00 85 1017.0
20260904214523 67 248 0.0 0.0 0.00 0.00 0.00 85 1017.0
20260904214028 67 248 0.0 0.0 0.00 0.00 0.00 85 1017.0
20260904213517 67 248 0.0 1.0 0.00 0.00 0.00 85 1017.0
20260904213033 68 248 0.0 1.0 0.00 0.00 0.00 84 1017.0
20260904212518 68 248 0.0 0.0 0.00 0.00 0.00 84 1017.0
20260904212042 68 248 0.0 0.0 0.00 0.00 0.00 84 1017.0
20260904211547 68 248 0.0 1.0 0.00 0.00 0.00 84 1017.1
20260904211047 68 248 0.0 1.0 0.00 0.00 0.00 84 1017.1
20260904210552 68 248 0.0 0.0 0.00 0.00 0.00 84 1017.1
20260904210026 68 248 0.0 0.0 0.00 0.00 0.00 84 1017.0
20260904205531 68 248 0.0 0.0 0.00 0.00 0.00 83 1017.0
20260904205014 68 248 0.0 0.0 0.00 0.00 0.00 83 1017.0
20260904204520 68 248 0.0 0.0 0.00 0.00 0.00 83 1017.0
20260904204021 69 248 0.0 0.0 0.00 0.00 0.00 83 1017.0
20260904203527 69 248 0.0 0.0 0.00 0.00 0.00 83 1017.0
20260904203024 69 248 0.0 1.0 0.00 0.00 0.00 83 1017.0
20260904202550 69 248 0.0 1.0 0.00 0.00 0.00 82 1017.1
20260904202014 69 248 0.0 0.0 0.00 0.00 0.00 83 1017.1
20260904201519 69 248 0.0 0.0 0.00 0.00 0.00 83 1017.1
20260904201021 70 248 0.0 0.0 0.00 0.00 0.00 82 1017.1
20260904200548 70 248 0.0 0.0 0.00 0.00 0.00 82 1017.1
20260904200022 70 248 0.0 0.0 0.00 0.00 0.00 82 1017.1
20260904195528 70 248 0.0 0.0 0.00 0.00 0.00 82 1017.1
20260904195031 70 248 0.0 0.0 0.00 0.00 0.00 82 1017.0
20260904194518 70 248 0.0 0.0 0.00 0.00 0.00 81 1017.0
20260904194020 70 248 0.0 0.0 0.00 0.00 0.00 81 1017.0
20260904193527 71 248 0.0 0.0 0.00 0.00 0.00 81 1017.1
20260904193020 71 248 0.0 0.0 0.00 0.00 0.00 81 1017.1
20260904192528 71 248 0.0 1.0 0.00 0.00 0.00 80 1017.1
20260904192032 71 248 0.0 1.0 0.00 0.00 0.00 80 1017.2
20260904191522 71 248 0.0 1.0 0.00 0.00 0.00 80 1017.1
20260904191024 71 248 0.0 1.0 0.00 0.00 0.00 80 1017.1
20260904190529 72 248 0.0 0.0 0.00 0.00 0.00 80 1017.1
20260904190022 72 248 0.0 0.0 0.00 0.00 0.00 79 1017.1
20260904185527 72 248 0.0 0.0 0.00 0.00 0.00 79 1017.1
20260904185028 72 248 0.0 0.0 0.00 0.00 0.00 79 1017.0
20260904184513 72 248 0.0 0.0 0.00 0.00 0.00 78 1016.9
20260904184016 72 248 0.0 0.0 0.00 0.00 0.00 78 1016.9
20260904183524 73 248 0.0 1.0 0.00 0.00 0.00 78 1016.9
20260904183019 73 248 0.0 1.0 0.00 0.00 0.00 78 1016.9
20260904182524 73 248 0.0 0.0 0.00 0.00 0.00 78 1016.8
20260904182027 73 248 0.0 0.0 0.00 0.00 0.00 78 1016.8
20260904181512 74 248 0.0 1.0 0.00 0.00 0.00 77 1016.8
20260904181019 74 248 0.0 2.0 0.00 0.00 0.00 77 1016.7
20260904180524 74 248 1.0 2.0 0.00 0.00 0.00 77 1016.7
20260904180018 74 248 0.0 1.0 0.00 0.00 0.00 76 1016.6
20260904175523 74 248 1.0 2.0 0.00 0.00 0.00 76 1016.6
20260904175024 75 248 1.0 2.0 0.00 0.00 0.00 76 1016.5
20260904174511 75 248 0.0 2.0 0.00 0.00 0.00 75 1016.4
20260904174015 75 248 1.0 2.0 0.00 0.00 0.00 75 1016.4
20260904173522 75 248 0.0 2.0 0.00 0.00 0.00 75 1016.4
20260904173018 76 248 1.0 2.0 0.00 0.00 0.00 75 1016.4
20260904172524 76 248 1.0 2.0 0.00 0.00 0.00 74 1016.4
20260904172028 76 248 1.0 2.0 0.00 0.00 0.00 74 1016.4
20260904171513 76 248 1.0 2.0 0.00 0.00 0.00 73 1016.4
20260904171015 77 248 1.0 2.0 0.00 0.00 0.00 73 1016.4
20260904170524 77 248 0.0 2.0 0.00 0.00 0.00 73 1016.4
20260904170019 77 248 0.0 2.0 0.00 0.00 0.00 72 1016.4
20260904165525 78 248 1.0 1.0 0.00 0.00 0.00 72 1016.4
20260904165047 78 248 0.0 1.0 0.00 0.00 0.00 72 1016.4
20260904164513 78 248 0.0 1.0 0.00 0.00 0.00 72 1016.4
20260904164036 79 248 0.0 1.0 0.00 0.00 0.00 71 1016.4
20260904163522 79 248 0.0 1.0 0.00 0.00 0.00 71 1016.4
20260904163017 79 248 0.0 1.0 0.00 0.00 0.00 70 1016.4
20260904162523 80 248 0.0 1.0 0.00 0.00 0.00 69 1016.3
20260904162047 80 248 1.0 2.0 0.00 0.00 0.00 70 1016.4
20260904161512 80 248 1.0 3.0 0.00 0.00 0.00 68 1016.4
20260904161017 81 248 1.0 4.0 0.00 0.00 0.00 68 1016.4
20260904160523 82 248 2.0 4.0 0.00 0.00 0.00 65 1016.4
20260904160017 83 246 2.0 5.0 0.00 0.00 0.00 62 1016.4
20260904155527 84 247 2.0 5.0 0.00 0.00 0.00 62 1016.4
20260904155049 84 250 2.0 5.0 0.00 0.00 0.00 58 1016.4
20260904154512 85 250 3.0 5.0 0.00 0.00 0.00 56 1016.5
20260904154015 85 251 2.0 5.0 0.00 0.00 0.00 57 1016.5
20260904153521 86 239 2.0 5.0 0.00 0.00 0.00 56 1016.6
20260904153015 86 225 2.0 4.0 0.00 0.00 0.00 55 1016.6
20260904152522 87 224 2.0 5.0 0.00 0.00 0.00 53 1016.6
20260904152023 88 220 1.0 5.0 0.00 0.00 0.00 52 1016.6
20260904151529 88 228 1.0 4.0 0.00 0.00 0.00 53 1016.7
20260904151030 89 227 2.0 4.0 0.00 0.00 0.00 53 1016.8
20260904150516 89 232 2.0 5.0 0.00 0.00 0.00 50 1016.8
20260904150012 89 227 3.0 5.0 0.00 0.00 0.00 50 1016.8
20260904145517 90 221 2.0 5.0 0.00 0.00 0.00 49 1016.9
20260904145020 90 221 2.0 6.0 0.00 0.00 0.00 48 1016.8
20260904144511 90 217 3.0 6.0 0.00 0.00 0.00 48 1016.8
20260904144014 90 223 3.0 6.0 0.00 0.00 0.00 48 1016.9
20260904143519 90 217 2.0 6.0 0.00 0.00 0.00 49 1017.0
20260904143012 90 217 2.0 5.0 0.00 0.00 0.00 51 1017.0
20260904142519 90 195 3.0 5.0 0.00 0.00 0.00 50 1017.0
20260904142020 91 199 3.0 8.0 0.00 0.00 0.00 50 1017.1
20260904141525 91 195 4.0 8.0 0.00 0.00 0.00 47 1017.2
20260904141029 91 191 4.0 7.0 0.00 0.00 0.00 48 1017.2
20260904140516 91 215 3.0 6.0 0.00 0.00 0.00 47 1017.2
20260904140050 91 240 3.0 6.0 0.00 0.00 0.00 47 1017.2
20260904135514 91 204 2.0 9.0 0.00 0.00 0.00 47 1017.3
20260904135017 91 208 6.0 9.0 0.00 0.00 0.00 46 1017.4
20260904134523 91 207 3.0 7.0 0.00 0.00 0.00 48 1017.4
20260904134028 91 212 3.0 11.0 0.00 0.00 0.00 45 1017.3
20260904133513 91 190 5.0 11.0 0.00 0.00 0.00 47 1017.4
20260904133028 91 228 3.0 8.0 0.00 0.00 0.00 48 1017.3
20260904132515 91 194 3.0 6.0 0.00 0.00 0.00 47 1017.3
20260904132016 91 205 3.0 6.0 0.00 0.00 0.00 46 1017.4
20260904131521 91 184 3.0 7.0 0.00 0.00 0.00 46 1017.4
20260904131044 91 203 3.0 7.0 0.00 0.00 0.00 47 1017.5
20260904130549 91 227 2.0 8.0 0.00 0.00 0.00 47 1017.4
20260904130022 91 196 4.0 8.0 0.00 0.00 0.00 48 1017.6
20260904125527 91 194 3.0 7.0 0.00 0.00 0.00 47 1017.6
20260904125029 91 218 3.0 10.0 0.00 0.00 0.00 46 1017.6
20260904124516 91 160 4.0 10.0 0.00 0.00 0.00 45 1017.6
20260904124016 91 159 2.0 7.0 0.00 0.00 0.00 46 1017.7
20260904123521 91 209 2.0 5.0 0.00 0.00 0.00 47 1017.7
20260904123015 91 201 3.0 7.0 0.00 0.00 0.00 46 1017.8
20260904122524 91 232 4.0 7.0 0.00 0.00 0.00 45 1017.9
20260904122047 91 212 4.0 7.0 0.00 0.00 0.00 47 1018.0
20260904121512 91 221 3.0 7.0 0.00 0.00 0.00 47 1018.0
20260904121012 91 202 2.0 7.0 0.00 0.00 0.00 47 1018.1
20260904120538 91 200 2.0 7.0 0.00 0.00 0.00 49 1018.1
20260904120011 91 200 3.0 8.0 0.00 0.00 0.00 47 1018.1
20260904115516 90 211 3.0 8.0 0.00 0.00 0.00 47 1018.1
20260904115019 90 224 3.0 8.0 0.00 0.00 0.00 49 1018.1
20260904114526 90 162 2.0 7.0 0.00 0.00 0.00 47 1018.2
20260904114027 90 94 4.0 7.0 0.00 0.00 0.00 46 1018.2
20260904113513 90 191 2.0 6.0 0.00 0.00 0.00 48 1018.3
20260904113028 90 170 3.0 8.0 0.00 0.00 0.00 48 1018.3
20260904112514 90 208 1.0 8.0 0.00 0.00 0.00 49 1018.4
20260904112017 90 218 4.0 7.0 0.00 0.00 0.00 48 1018.4
20260904111521 90 192 3.0 7.0 0.00 0.00 0.00 49 1018.4
20260904111026 90 224 3.0 7.0 0.00 0.00 0.00 47 1018.4
20260904110514 90 212 2.0 10.0 0.00 0.00 0.00 48 1018.5
20260904110029 90 240 5.0 9.0 0.00 0.00 0.00 46 1018.4
20260904105517 90 207 3.0 6.0 0.00 0.00 0.00 48 1018.4
20260904105041 89 182 2.0 7.0 0.00 0.00 0.00 50 1018.4
20260904104525 89 215 3.0 7.0 0.00 0.00 0.00 46 1018.4
20260904104025 89 200 3.0 7.0 0.00 0.00 0.00 50 1018.4
20260904103513 88 63 1.0 3.0 0.00 0.00 0.00 49 1018.4
20260904103049 88 63 2.0 3.0 0.00 0.00 0.00 49 1018.5
20260904102534 88 61 2.0 5.0 0.00 0.00 0.00 49 1018.5
20260904102015 87 61 3.0 5.0 0.00 0.00 0.00 48 1018.6
20260904101522 87 60 3.0 4.0 0.00 0.00 0.00 50 1018.7
20260904101025 87 60 2.0 4.0 0.00 0.00 0.00 50 1018.7
20260904100551 87 61 2.0 4.0 0.00 0.00 0.00 51 1018.7
20260904100025 86 62 2.0 4.0 0.00 0.00 0.00 51 1018.8
20260904095511 86 61 2.0 4.0 0.00 0.00 0.00 53 1018.9
20260904095013 85 61 3.0 4.0 0.00 0.00 0.00 53 1019.0
20260904094518 85 62 2.0 4.0 0.00 0.00 0.00 53 1019.1
20260904094024 84 62 3.0 4.0 0.00 0.00 0.00 54 1019.1
20260904093529 84 62 3.0 5.0 0.00 0.00 0.00 55 1019.1
20260904093024 84 63 3.0 5.0 0.00 0.00 0.00 54 1019.1
20260904092530 83 67 3.0 5.0 0.00 0.00 0.00 55 1019.1
20260904092012 83 70 3.0 5.0 0.00 0.00 0.00 55 1019.1
20260904091518 83 75 3.0 5.0 0.00 0.00 0.00 55 1019.2
20260904091019 83 81 2.0 6.0 0.00 0.00 0.00 56 1019.2
20260904090523 83 85 3.0 4.0 0.00 0.00 0.00 56 1019.3
20260904090016 82 90 2.0 4.0 0.00 0.00 0.00 57 1019.3
20260904085521 82 91 3.0 4.0 0.00 0.00 0.00 57 1019.3
20260904085026 81 94 2.0 4.0 0.00 0.00 0.00 59 1019.3
20260904084514 81 96 2.0 4.0 0.00 0.00 0.00 59 1019.3
20260904084017 81 96 3.0 6.0 0.00 0.00 0.00 59 1019.4
20260904083527 80 98 2.0 6.0 0.00 0.00 0.00 60 1019.4
20260904083021 80 111 2.0 4.0 0.00 0.00 0.00 60 1019.4
20260904082527 79 114 2.0 4.0 0.00 0.00 0.00 62 1019.4
20260904082029 79 121 2.0 4.0 0.00 0.00 0.00 64 1019.4
20260904081516 78 126 2.0 4.0 0.00 0.00 0.00 63 1019.4
20260904081018 78 136 3.0 5.0 0.00 0.00 0.00 63 1019.4
20260904080524 78 142 3.0 5.0 0.00 0.00 0.00 62 1019.4
20260904080017 78 155 2.0 5.0 0.00 0.00 0.00 64 1019.4
20260904075525 78 159 2.0 4.0 0.00 0.00 0.00 65 1019.4
20260904075049 77 162 2.0 3.0 0.00 0.00 0.00 64 1019.4
20260904074514 77 162 2.0 5.0 0.00 0.00 0.00 66 1019.5
20260904074037 77 163 1.0 5.0 0.00 0.00 0.00 65 1019.5
20260904073523 76 166 2.0 4.0 0.00 0.00 0.00 68 1019.5
20260904073038 75 166 2.0 5.0 0.00 0.00 0.00 69 1019.5
20260904072545 75 166 3.0 5.0 0.00 0.00 0.00 68 1019.5
20260904072031 74 167 2.0 5.0 0.00 0.00 0.00 71 1019.6